Back to Top

Language: 

My Weather Underground Personal Weather Station Historical Data with Graphs...

Delerius Weather Station Historical Data
 
Daily Summary for January 17, 2018 Units:  Metric    English   Both
« Previous Day
Next Day »
Daily Weekly Monthly Yearly Custom
  Current: High: Low: Average:
Temperature: 3.7 °C 3.7 °C 1 °C 2.2 °C
Dew Point: 1.2 °C 1.4 °C -0.3 °C 0.8 °C
Humidity: 84 % 93 % 84 % 91 %
Wind Speed: 35.4 km/h 35.4 km/h 14.5 km/h 26.7 km/h
Wind Gust: 57.9 km/h 57.9 km/h - -
Wind:West - - WNW
Pressure: 998.5 hPa 998.5 hPa 990.1 hPa -
Precipitation: 4.06 mm      
Historical Graphs
 
 
Tabular Data for January 17, 2018
Time Temperature Dew Point Pressure Wind Wind Speed Wind Gust Humidity Rainfall Rate (Hourly) solar Conditions
00:30 1.3 °C 0 °C 990.1 hPa West 14.5 km/h 24.1 km/h 91 % 0 mm 0 W/m2
01:02 1.2 °C -0.3 °C 990.1 hPa WNW 22.5 km/h 35.4 km/h 90 % 0 mm 0 W/m2
01:17 1 °C -0.2 °C 990.1 hPa West 19.3 km/h 35.4 km/h 92 % 0 mm 0 W/m2
01:39 1.2 °C 0.1 °C 990.4 hPa West 20.9 km/h 30.6 km/h 92 % 0 mm 0 W/m2
02:37 1.4 °C 0.4 °C 991.1 hPa West 32.2 km/h 56.3 km/h 93 % 0.25 mm 0 W/m2
02:43 1.5 °C 0.5 °C 990.7 hPa West 29 km/h 43.5 km/h 93 % 0.25 mm 0 W/m2
02:49 1.4 °C 0.4 °C 991.1 hPa West 24.1 km/h 38.6 km/h 93 % 0.25 mm 0 W/m2
02:55 1.5 °C 0.5 °C 990.7 hPa West 24.1 km/h 40.2 km/h 93 % 0.25 mm 0 W/m2
03:16 2 °C 0.6 °C 990.7 hPa West 32.2 km/h 48.3 km/h 90 % 0.25 mm 0 W/m2
03:28 2.1 °C 0.6 °C 991.8 hPa West 32.2 km/h 48.3 km/h 90 % 0.51 mm 0 W/m2
03:33 1.9 °C 0.6 °C 992.1 hPa WNW 33.8 km/h 48.3 km/h 91 % 0.51 mm 0 W/m2
03:41 1.8 °C 0.6 °C 992.1 hPa WNW 17.7 km/h 32.2 km/h 92 % 0.51 mm 0 W/m2
03:47 1.8 °C 0.6 °C 992.4 hPa West 22.5 km/h 35.4 km/h 92 % 0.51 mm 0 W/m2
04:00 1.8 °C 0.8 °C 992.1 hPa West 24.1 km/h 40.2 km/h 93 % 0.76 mm 0 W/m2
04:09 1.9 °C 0.7 °C 992.1 hPa WNW 27.4 km/h 40.2 km/h 92 % 1.02 mm 0 W/m2
04:20 2.2 °C 0.9 °C 992.4 hPa WNW 27.4 km/h 41.8 km/h 91 % 1.02 mm 0 W/m2
04:21 2.2 °C 0.9 °C 992.8 hPa WNW 24.1 km/h 33.8 km/h 91 % 1.02 mm 0 W/m2
04:37 2.2 °C 0.7 °C 993.1 hPa WNW 24.1 km/h 45.1 km/h 90 % 0.76 mm 0 W/m2
04:46 2.3 °C 1 °C 993.1 hPa WNW 27.4 km/h 48.3 km/h 91 % 0.51 mm 0 W/m2
04:53 2.2 °C 0.9 °C 993.1 hPa WNW 25.7 km/h 38.6 km/h 91 % 0.51 mm 0 W/m2
05:02 2.3 °C 1 °C 993.5 hPa WNW 27.4 km/h 41.8 km/h 91 % 0.51 mm 0 W/m2
05:31 2.4 °C 1.1 °C 994.5 hPa West 29 km/h 48.3 km/h 91 % 0.51 mm 0 W/m2
05:48 2.4 °C 1.1 °C 994.8 hPa West 25.7 km/h 48.3 km/h 91 % 0.51 mm 0 W/m2
06:13 1.9 °C 0.7 °C 995.1 hPa WNW 27.4 km/h 41.8 km/h 92 % 0.51 mm 0 W/m2
06:36 2.3 °C 0.8 °C 996.2 hPa WNW 25.7 km/h 41.8 km/h 90 % 0.76 mm 0 W/m2
06:51 2.6 °C 1.1 °C 996.2 hPa West 24.1 km/h 40.2 km/h 90 % 0.51 mm 0 W/m2
07:07 2.9 °C 1.3 °C 996.5 hPa WNW 35.4 km/h 49.9 km/h 89 % 0.51 mm 0 W/m2
07:20 2.8 °C 1.3 °C 997.2 hPa WNW 27.4 km/h 43.5 km/h 90 % 0.51 mm 0 W/m2
07:28 2.9 °C 1.4 °C 997.2 hPa WNW 29 km/h 48.3 km/h 90 % 0.51 mm 0 W/m2
07:43 3.1 °C 1.4 °C 997.9 hPa WNW 25.7 km/h 43.5 km/h 89 % 0.76 mm 0 W/m2
08:03 3.3 °C 1.2 °C 998.2 hPa West 32.2 km/h 51.5 km/h 86 % 0.76 mm 0 W/m2
08:39 3.3 °C 1.3 °C 998.5 hPa West 29 km/h 43.5 km/h 87 % 0.51 mm 14 W/m2
08:49 3.4 °C 1.3 °C 998.5 hPa West 29 km/h 43.5 km/h 86 % 0.51 mm 30 W/m2
09:01 3.7 °C 1.2 °C 998.5 hPa West 35.4 km/h 57.9 km/h 84 % 0.51 mm 30 W/m2
Delerius-Weather
Compliments of Weather Underground - 1.25 mb

Data updates at regular intervals.